Location: Fazenda Monte Alegre
(4.8500°S, 38.0333°W)
Time: 15:06:57
(UTC+00:00)

Cosmos 1025 Rocket - Pass Details

Date: 24 September 2020
Orbit: 595 x 617 km, 82.5° (Epoch: 19 October)

Event Time Altitude Azimuth Distance (km) Brightness Sun altitude
Rises 21:55:50 0° 357° (N) 2,870 6.5 -22.8°
Reaches altitude 10° 21:58:02 10° 358° (N) 1,969 5.6 -23.4°
Enters shadow 22:00:35 35° 1° (N) 998 4.0 -24.0°
